N3UJJ-1 Weather Reports


Display with metric or nautical units.
time (UTC)temp
F
wind
direction
speed
MPH
gust
MPH
rain 1hr
in
rain 24hr
in
rain mn
in
humidity
%
barometer
mb
20260906100136 61 175 0.0 0.0 0.00 0.00 0.00 96 1012.3
20260906094635 62 175 0.0 0.0 0.00 0.00 0.00 96 1012.2
20260906094420 62 175 0.0 0.0 0.00 0.00 0.00 96 1012.2
20260906093135 62 175 0.0 0.0 0.00 0.00 0.00 96 1012.0
20260906091635 62 175 0.0 0.0 0.00 0.00 0.00 96 1011.9
20260906090135 62 175 0.0 0.0 0.00 0.00 0.00 96 1011.7
20260906084635 62 175 0.0 0.0 0.00 0.00 0.00 96 1011.7
20260906084446 62 175 0.0 0.0 0.00 0.00 0.00 96 1011.8
20260906083135 63 175 0.0 0.0 0.00 0.00 0.00 96 1011.6
20260906081634 63 175 0.0 0.0 0.00 0.00 0.00 96 1011.6
20260906080134 63 175 0.0 0.0 0.00 0.00 0.00 96 1011.5
20260906074634 63 175 0.0 0.0 0.00 0.00 0.00 96 1011.4
20260906074442 63 175 0.0 0.0 0.00 0.00 0.00 96 1011.4
20260906073134 63 175 0.0 0.0 0.00 0.00 0.00 96 1011.3
20260906071634 64 175 0.0 0.0 0.00 0.00 0.00 96 1011.2
20260906070134 64 175 0.0 0.0 0.00 0.00 0.00 96 1011.3
20260906064634 64 175 0.0 0.0 0.00 0.00 0.00 96 1011.3
20260906064415 64 175 0.0 0.0 0.00 0.00 0.00 96 1011.5
20260906063133 64 175 0.0 0.0 0.00 0.00 0.00 96 1011.4
20260906061633 65 175 0.0 0.0 0.00 0.00 0.00 96 1011.4
20260906060133 65 175 0.0 0.0 0.00 0.00 0.00 96 1011.4
20260906054633 65 175 0.0 0.0 0.00 0.00 0.00 96 1011.2
20260906054423 65 175 0.0 0.0 0.00 0.00 0.00 96 1011.3
20260906053133 65 175 0.0 0.0 0.00 0.00 0.00 96 1011.4
20260906051633 65 175 0.0 0.0 0.00 0.00 0.00 96 1011.5
20260906050132 66 175 0.0 0.0 0.00 0.00 0.00 96 1011.6
20260906044632 66 175 0.0 0.0 0.00 0.00 0.00 96 1011.6
20260906044424 66 175 0.0 0.0 0.00 0.00 0.00 96 1011.8
20260906043132 67 175 0.0 0.0 0.00 0.00 0.00 96 1011.8
20260906041632 67 175 0.0 0.0 0.00 0.00 0.00 96 1011.7
20260906040132 67 175 0.0 0.0 0.00 0.00 0.00 96 1011.6
20260906034632 67 175 0.0 0.0 0.00 0.00 0.00 96 1011.8
20260906034416 67 175 0.0 0.0 0.00 0.00 0.00 96 1011.8
20260906033132 68 175 0.0 0.0 0.00 0.00 0.00 96 1011.8
20260906031631 68 175 0.0 0.0 0.00 0.00 0.00 96 1011.7
20260906030131 68 175 0.0 0.0 0.00 0.00 0.00 96 1011.8
20260906024631 69 175 0.0 0.0 0.00 0.00 0.00 96 1011.7
20260906024442 69 175 0.0 0.0 0.00 0.00 0.00 96 1011.8
20260906023131 69 175 0.0 0.0 0.00 0.00 0.00 96 1011.8
20260906021631 70 175 0.0 0.0 0.00 0.00 0.00 96 1011.6
20260906020131 70 175 0.0 0.0 0.00 0.00 0.00 96 1011.6
20260906014630 70 175 0.0 0.0 0.00 0.00 0.00 96 1011.5
20260906014419 70 175 0.0 0.0 0.00 0.00 0.00 96 1011.6
20260906013130 70 175 0.0 0.0 0.00 0.00 0.00 95 1011.2
20260906011630 71 175 0.0 0.0 0.00 0.00 0.00 95 1011.1
20260906010130 71 175 0.0 0.0 0.00 0.00 0.00 94 1011.0
20260906004630 72 175 0.0 0.0 0.00 0.00 0.00 94 1010.8
20260906004416 72 175 0.0 0.0 0.00 0.00 0.00 94 1010.8
20260906003129 72 175 0.0 0.0 0.00 0.00 0.00 93 1010.8
20260906001629 73 175 0.0 0.0 0.00 0.00 0.00 92 1010.6
20260906000129 74 175 0.0 0.0 0.00 0.00 0.00 90 1010.5
20260905234629 74 175 0.0 0.0 0.00 0.00 0.00 89 1010.4
20260905234421 74 175 0.0 0.0 0.00 0.00 0.00 89 1010.5
20260905233129 75 175 0.0 0.0 0.00 0.00 0.00 88 1010.3
20260905231629 76 175 0.0 0.0 0.00 0.00 0.00 86 1010.2
20260905230128 77 175 0.0 0.0 0.00 0.00 0.00 82 1010.3
20260905224628 76 175 0.0 0.0 0.00 0.00 0.00 84 1010.3
20260905224421 76 175 0.0 0.0 0.00 0.00 0.00 84 1010.3
20260905223128 76 175 0.0 4.0 0.00 0.00 0.00 84 1010.1
20260905221628 77 175 0.0 4.0 0.00 0.00 0.00 83 1009.8
20260905220128 77 175 0.0 6.0 0.00 0.00 0.00 82 1009.9
20260905214628 78 175 0.0 6.0 0.00 0.00 0.00 81 1009.8
20260905214444 78 175 0.0 0.0 0.00 0.00 0.00 81 1009.8
20260905213128 78 163 0.0 7.0 0.00 0.00 0.00 81 1009.6
20260905211627 79 134 4.0 7.0 0.00 0.00 0.00 76 1009.5
20260905210127 79 165 2.0 8.0 0.00 0.00 0.00 77 1009.4
20260905204627 79 174 0.0 8.0 0.00 0.00 0.00 77 1009.3
20260905204444 79 148 0.0 5.0 0.00 0.00 0.00 78 1009.5
20260905203127 79 187 0.0 9.0 0.00 0.00 0.00 78 1009.4
20260905201627 79 51 0.0 9.0 0.00 0.00 0.00 76 1009.5
20260905200127 79 154 4.0 9.0 0.00 0.00 0.00 76 1009.5
20260905194627 79 304 6.0 9.0 0.00 0.00 0.00 74 1009.4
20260905194420 79 316 2.0 7.0 0.00 0.00 0.00 75 1009.5
20260905193127 79 288 5.0 9.0 0.00 0.00 0.00 76 1009.6
20260905191626 79 42 3.0 9.0 0.00 0.00 0.00 77 1009.6
20260905190126 79 340 5.0 9.0 0.00 0.00 0.00 80 1009.6
20260905184626 79 63 1.0 9.0 0.00 0.00 0.00 80 1010.0
20260905184504 79 43 4.0 9.0 0.00 0.00 0.00 80 1010.2
20260905183126 79 344 2.0 7.0 0.00 0.00 0.00 82 1010.1
20260905181626 78 128 0.0 7.0 0.00 0.00 0.00 82 1010.5
20260905180125 79 101 2.0 7.0 0.00 0.00 0.00 80 1010.7
20260905174625 80 157 6.0 7.0 0.00 0.00 0.00 79 1010.7
20260905174429 80 88 2.0 6.0 0.00 0.00 0.00 78 1010.8
20260905173125 80 161 1.0 6.0 0.00 0.00 0.00 78 1010.9
20260905171625 81 130 0.0 6.0 0.00 0.00 0.00 78 1010.9
20260905170125 80 86 0.0 6.0 0.00 0.00 0.00 78 1011.1
20260905164625 80 37 0.0 6.0 0.00 0.00 0.00 77 1011.0
20260905164427 80 171 2.0 6.0 0.00 0.00 0.00 78 1011.1
20260905163124 80 187 0.0 6.0 0.00 0.00 0.00 78 1011.0
20260905161624 80 49 4.0 6.0 0.00 0.00 0.00 77 1011.1
20260905160124 79 343 2.0 7.0 0.00 0.00 0.00 79 1011.2
20260905154624 79 30 4.0 7.0 0.00 0.00 0.00 78 1011.4
20260905154424 79 306 2.0 7.0 0.00 0.00 0.00 78 1011.4
20260905153124 80 59 2.0 8.0 0.00 0.00 0.00 81 1011.5
20260905151624 80 355 2.0 8.0 0.00 0.00 0.00 81 1011.4
20260905150123 80 38 5.0 9.0 0.00 0.00 0.00 80 1011.5
20260905144623 80 345 2.0 9.0 0.00 0.00 0.00 80 1011.5
20260905144422 80 47 4.0 8.0 0.00 0.00 0.00 80 1011.7
20260905143123 80 33 6.0 9.0 0.00 0.00 0.00 82 1011.2
20260905141623 78 49 5.0 9.0 0.00 0.00 0.00 87 1010.9
20260905140123 78 66 0.0 9.0 0.00 0.00 0.00 89 1010.8
20260905134623 77 71 0.0 9.0 0.00 0.00 0.00 90 1010.7
20260905134416 77 20 2.0 9.0 0.00 0.00 0.00 90 1010.9
20260905133123 78 355 5.0 11.0 0.00 0.00 0.00 89 1010.9
20260905131622 77 5 6.0 11.0 0.00 0.00 0.00 91 1010.8
20260905130122 76 27 4.0 4.0 0.00 0.00 0.00 94 1010.8
20260905124622 75 15 4.0 4.0 0.00 0.00 0.00 97 1010.7
20260905124444 75 338 2.0 7.0 0.00 0.00 0.00 97 1010.8
20260905123122 74 278 0.0 0.0 0.00 0.00 0.00 97 1010.7
20260905121622 73 207 0.0 0.0 0.00 0.00 0.00 97 1010.7
20260905120122 72 207 0.0 0.0 0.00 0.00 0.00 97 1010.7
20260905114622 71 207 0.0 0.0 0.00 0.00 0.00 97 1010.5
20260905114415 71 207 0.0 0.0 0.00 0.00 0.00 97 1010.7
20260905113121 71 207 0.0 0.0 0.00 0.00 0.00 97 1010.5
20260905111621 70 207 0.0 0.0 0.00 0.00 0.00 97 1010.2
20260905110121 70 207 0.0 0.0 0.00 0.00 0.00 97 1010.0
20260905104621 70 207 0.0 0.0 0.00 0.00 0.00 97 1009.8
20260905104420 70 207 0.0 0.0 0.00 0.00 0.00 97 1009.8
20260905103121 70 207 0.0 0.0 0.00 0.00 0.00 97 1009.7
20260905101621 70 207 0.0 0.0 0.00 0.00 0.00 97 1009.6